This is the latest recevied weather packets stored in our database for station/object K1KOF. If no packets are shown the sender has not sent any weather packets the latest 10 day(s).
| Time | Temp. | Humidity | Pressure | Rain* | Wind** | Luminosity | Snow |
|---|---|---|---|---|---|---|---|
| 1777760065 | 16.67° C | 79% | 1021.9 hPa | 0 mm | - | 71 W/m² | - |
| 1777759762 | 16.67° C | 80% | 1022.1 hPa | 0 mm | - | 115 W/m² | - |
| 1777759458 | 16.67° C | 77% | 1022 hPa | 0 mm | - | 279 W/m² | - |
| 1777759155 | 17.22° C | 78% | 1022 hPa | 0 mm | - | 262 W/m² | - |
| 1777758852 | 18.33° C | 73% | 1022 hPa | 0 mm | - | 363 W/m² | - |
| 1777758549 | 17.22° C | 75% | 1022 hPa | 0 mm | - | 132 W/m² | - |
| 1777758245 | 16.67° C | 77% | 1022.2 hPa | 0 mm | - | 356 W/m² | - |
| 1777757943 | 16.67° C | 79% | 1021.8 hPa | 0.51 mm | - | 120 W/m² | - |
| 1777757639 | 16.67° C | 78% | 1022 hPa | 0.51 mm | - | 94 W/m² | - |
| 1777757339 | 16.67° C | 77% | 1021.9 hPa | 0 mm | - | 109 W/m² | - |
| 1777757037 | 17.22° C | 75% | 1021.8 hPa | 0 mm | - | 108 W/m² | - |
| 1777756734 | 17.78° C | 76% | 1021.8 hPa | 0 mm | - | 328 W/m² | - |
| 1777756429 | 17.78° C | 74% | 1021.8 hPa | 0 mm | - | 506 W/m² | - |
| 1777756127 | 17.22° C | 75% | 1021.8 hPa | 0 mm | - | 415 W/m² | - |
| 1777755824 | 16.67° C | 76% | 1021.9 hPa | 0 mm | - | 214 W/m² | - |
| 1777755521 | 16.67° C | 77% | 1021.6 hPa | 0 mm | - | 150 W/m² | - |
| 1777755217 | 17.22° C | 78% | 1021.8 hPa | 0 mm | - | 158 W/m² | - |
| 1777754914 | 17.22° C | 77% | 1022 hPa | 0 mm | - | 414 W/m² | - |
| 1777754611 | 17.22° C | 74% | 1022 hPa | 0 mm | - | 596 W/m² | - |
| 1777754309 | 16.67° C | 77% | 1021.8 hPa | 0 mm | - | 303 W/m² | - |
| 1777754006 | 16.67° C | 77% | 1022 hPa | 0 mm | - | 174 W/m² | - |
| 1777753701 | 16.67° C | 78% | 1021.9 hPa | 0 mm | - | 190 W/m² | - |
| 1777753399 | 17.22° C | 76% | 1022 hPa | 0 mm | - | 210 W/m² | - |
| 1777753097 | 17.78° C | 77% | 1021.9 hPa | 0 mm | - | 695 W/m² | - |
| 1777752792 | 16.67° C | 76% | 1021.9 hPa | 0 mm | - | 561 W/m² | - |
* Rain latest hour (hover to see other rain measurements)
** Current wind speed in m/s (hover to see current wind gust speed)